When you browse on this site, cookies collect data to enhance your experience and personalize the content and advertising you see.
Visit our Privacy Policy to learn more. By continuing to use the site, you agree to this use of cookies and data.
  • In Netherlands
  • List of Countries
  • For 7 days
  • Water Temperature
  • Satellite Maps
  • Weather Map
  • Weather Widgets
  • user-avatar
    Login

    Hourly Weather Wąbrzeźno

    Today, 23 April, Tuesday

    Time Temperature Precipitation Wind Pressure Humidity
    00:00 +8°C° 0 mm 5 mps 758 mmHg 60%
    01:00 +8°C° 0 mm 5 mps 758 mmHg 59%
    02:00 +7°C° 0 mm 5 mps 757 mmHg 58%
    03:00 +7°C° 0 mm 5 mps 757 mmHg 56%
    04:00 +7°C° 0 mm 6 mps 757 mmHg 55%
    05:00 +8°C° 0 mm 7 mps 757 mmHg 53%
    06:00 +9°C° 0 mm 8 mps 757 mmHg 51%
    07:00 +10°C° 0 mm 9 mps 757 mmHg 47%
    08:00 +12°C° 0 mm 9 mps 757 mmHg 44%
    09:00 +13°C° 0 mm 10 mps 757 mmHg 41%
    10:00 +14°C° 0 mm 11 mps 756 mmHg 38%
    11:00 +16°C° 0 mm 11 mps 756 mmHg 38%
    12:00 +16°C° 0 mm 11 mps 756 mmHg 38%
    13:00 +17°C° 0 mm 12 mps 755 mmHg 37%
    14:00 +17°C° 0 mm 11 mps 755 mmHg 39%
    15:00 +17°C° 0 mm 11 mps 754 mmHg 40%
    16:00 +17°C° 0 mm 10 mps 754 mmHg 42%
    17:00 +16°C° 0 mm 9 mps 754 mmHg 45%
    18:00 +13°C° 0 mm 8 mps 754 mmHg 48%
    19:00 +12°C° 0 mm 7 mps 753 mmHg 51%
    20:00 +12°C° 0 mm 7 mps 753 mmHg 50%
    21:00 +12°C° 0 mm 8 mps 753 mmHg 50%
    22:00 +11°C° 0 mm 8 mps 753 mmHg 49%
    23:00 +11°C° 0 mm 8 mps 753 mmHg 50%

    Tomorrow, 24 April, Wednesday

    Time Temperature Precipitation Wind Pressure Humidity
    00:00 +11°C° 0 mm 8 mps 753 mmHg 51%
    01:00 +10°C° 0 mm 8 mps 753 mmHg 52%
    02:00 +10°C° 0 mm 8 mps 753 mmHg 53%
    03:00 +10°C° 0 mm 8 mps 753 mmHg 54%
    04:00 +9°C° 0 mm 8 mps 752 mmHg 54%
    05:00 +10°C° 0 mm 9 mps 752 mmHg 55%
    06:00 +10°C° 0 mm 9 mps 752 mmHg 56%
    07:00 +11°C° 0 mm 9 mps 752 mmHg 56%
    08:00 +12°C° 0 mm 9 mps 752 mmHg 55%
    09:00 +14°C° 0 mm 10 mps 752 mmHg 53%
    10:00 +16°C° 0 mm 10 mps 752 mmHg 52%
    11:00 +16°C° 0 mm 10 mps 752 mmHg 51%
    12:00 +17°C° 0 mm 10 mps 752 mmHg 50%
    13:00 +18°C° 0 mm 10 mps 752 mmHg 49%
    14:00 +18°C° 0 mm 9 mps 752 mmHg 51%
    15:00 +18°C° 0 mm 8 mps 752 mmHg 53%
    16:00 +20°C° 0 mm 7 mps 752 mmHg 55%
    17:00 +18°C° 0 mm 7 mps 752 mmHg 59%
    18:00 +17°C° 0 mm 6 mps 751 mmHg 62%
    19:00 +16°C° 0 mm 6 mps 751 mmHg 66%
    20:00 +15°C° 0 mm 6 mps 751 mmHg 69%
    21:00 +14°C° 0 mm 6 mps 752 mmHg 71%
    22:00 +13°C° 0 mm 6 mps 752 mmHg 74%
    23:00 +13°C° 0 mm 6 mps 752 mmHg 76%

    Day after tomorrow, 25 April, Thursday

    Time Temperature Precipitation Wind Pressure Humidity
    00:00 +13°C° 0 mm 6 mps 751 mmHg 77%
    01:00 +13°C° 0 mm 6 mps 751 mmHg 79%
    02:00 +13°C° 0 mm 6 mps 751 mmHg 80%
    03:00 +13°C° 0 mm 6 mps 751 mmHg 81%
    04:00 +13°C° 0 mm 6 mps 751 mmHg 81%
    05:00 +13°C° 0 mm 5 mps 751 mmHg 80%
    06:00 +14°C° 0 mm 5 mps 751 mmHg 78%
    07:00 +15°C° 0 mm 5 mps 751 mmHg 77%
    08:00 +16°C° 0 mm 5 mps 752 mmHg 72%
    09:00 +19°C° 0 mm 5 mps 752 mmHg 66%
    10:00 +21°C° 0 mm 5 mps 752 mmHg 61%
    11:00 +22°C° 0 mm 5 mps 752 mmHg 58%
    12:00 +23°C° 0 mm 5 mps 752 mmHg 54%
    13:00 +25°C° 0 mm 4 mps 752 mmHg 51%
    14:00 +25°C° 0 mm 4 mps 751 mmHg 52%
    15:00 +24°C° 0 mm 3 mps 751 mmHg 54%
    16:00 +24°C° 0 mm 3 mps 751 mmHg 55%
    17:00 +22°C° 0 mm 3 mps 751 mmHg 60%
    18:00 +20°C° 0 mm 2 mps 751 mmHg 65%
    19:00 +19°C° 0 mm 2 mps 751 mmHg 71%
    20:00 +18°C° 0 mm 2 mps 751 mmHg 73%
    21:00 +17°C° 0 mm 2 mps 751 mmHg 74%
    22:00 +16°C° 0 mm 2 mps 752 mmHg 76%
    23:00 +16°C° 0 mm 2 mps 751 mmHg 79%

    26 April, Friday

    Time Temperature Precipitation Wind Pressure Humidity
    00:00 +15°C° 0 mm 2 mps 751 mmHg 82%
    01:00 +15°C° 0 mm 2 mps 751 mmHg 84%
    02:00 +14°C° 0 mm 2 mps 751 mmHg 86%
    03:00 +14°C° 0 mm 2 mps 751 mmHg 88%
    04:00 +13°C° 0 mm 3 mps 751 mmHg 89%
    05:00 +14°C° 0 mm 3 mps 750 mmHg 84%
    06:00 +16°C° 0 mm 3 mps 750 mmHg 79%
    07:00 +18°C° 0 mm 3 mps 750 mmHg 73%
    08:00 +19°C° 0 mm 3 mps 750 mmHg 67%
    09:00 +21°C° 0 mm 4 mps 749 mmHg 61%
    10:00 +23°C° 0 mm 4 mps 749 mmHg 55%
    11:00 +25°C° 0 mm 4 mps 749 mmHg 52%
    12:00 +26°C° 0 mm 4 mps 748 mmHg 50%
    13:00 +27°C° 0 mm 3 mps 748 mmHg 47%
    14:00 +26°C° 0 mm 3 mps 747 mmHg 48%
    15:00 +26°C° 0 mm 3 mps 747 mmHg 50%
    16:00 +26°C° 0 mm 2 mps 747 mmHg 51%
    17:00 +25°C° 0 mm 2 mps 747 mmHg 55%
    18:00 +23°C° 0 mm 2 mps 746 mmHg 59%
    19:00 +22°C° 0 mm 1 mps 746 mmHg 62%
    20:00 +21°C° 0 mm 1 mps 746 mmHg 66%
    21:00 +20°C° 0 mm 1 mps 746 mmHg 69%
    22:00 +19°C° 0 mm 1 mps 746 mmHg 73%
    23:00 +19°C° 0 mm 1 mps 746 mmHg 74%

    27 April, Saturday

    Time Temperature Precipitation Wind Pressure Humidity
    00:00 +18°C° 0 mm 1 mps 746 mmHg 75%
    01:00 +18°C° 0 mm 1 mps 746 mmHg 77%
    02:00 +16°C° 0 mm 1 mps 746 mmHg 78%
    03:00 +16°C° 0 mm 1 mps 745 mmHg 79%
    04:00 +16°C° 0 mm 2 mps 745 mmHg 80%
    05:00 +16°C° 0.3 mm 2 mps 745 mmHg 81%
    06:00 +16°C° 0.3 mm 3 mps 745 mmHg 83%
    07:00 +17°C° 0.3 mm 3 mps 745 mmHg 84%
    08:00 +17°C° 0.5 mm 4 mps 746 mmHg 82%
    09:00 +18°C° 0.5 mm 4 mps 746 mmHg 81%
    10:00 +17°C° 0.5 mm 5 mps 746 mmHg 79%
    11:00 +16°C° 0.1 mm 5 mps 746 mmHg 79%
    12:00 +16°C° 0.1 mm 5 mps 747 mmHg 79%
    13:00 +15°C° 0.1 mm 5 mps 747 mmHg 79%
    14:00 +14°C° 0 mm 5 mps 747 mmHg 79%
    15:00 +13°C° 0 mm 6 mps 747 mmHg 79%
    16:00 +11°C° 0 mm 6 mps 747 mmHg 79%
    17:00 +11°C° 0.1 mm 6 mps 748 mmHg 77%
    18:00 +10°C° 0.1 mm 5 mps 748 mmHg 75%
    19:00 +9°C° 0.1 mm 5 mps 748 mmHg 73%
    20:00 +9°C° 0 mm 5 mps 749 mmHg 72%
    21:00 +9°C° 0 mm 5 mps 749 mmHg 71%
    22:00 +9°C° 0 mm 5 mps 749 mmHg 70%
    23:00 +9°C° 0 mm 5 mps 749 mmHg 73%

    28 April, Sunday

    Time Temperature Precipitation Wind Pressure Humidity
    00:00 +8°C° 0 mm 5 mps 749 mmHg 77%
    01:00 +8°C° 0 mm 5 mps 750 mmHg 80%
    02:00 +8°C° 0 mm 4 mps 750 mmHg 83%
    03:00 +8°C° 0 mm 4 mps 750 mmHg 86%
    04:00 +8°C° 0 mm 3 mps 750 mmHg 89%
    05:00 +8°C° 0 mm 4 mps 750 mmHg 86%
    06:00 +10°C° 0 mm 4 mps 751 mmHg 83%
    07:00 +11°C° 0 mm 4 mps 751 mmHg 79%
    08:00 +12°C° 0 mm 5 mps 751 mmHg 72%
    09:00 +13°C° 0 mm 5 mps 752 mmHg 65%
    10:00 +15°C° 0 mm 5 mps 752 mmHg 58%
    11:00 +16°C° 0 mm 5 mps 752 mmHg 54%
    12:00 +17°C° 0 mm 4 mps 752 mmHg 50%
    13:00 +18°C° 0 mm 4 mps 752 mmHg 46%
    14:00 +18°C° 0 mm 4 mps 752 mmHg 46%
    15:00 +18°C° 0 mm 4 mps 752 mmHg 46%
    16:00 +18°C° 0 mm 3 mps 752 mmHg 46%
    17:00 +17°C° 0.1 mm 3 mps 752 mmHg 54%
    18:00 +14°C° 0.1 mm 3 mps 753 mmHg 61%
    19:00 +13°C° 0.1 mm 2 mps 753 mmHg 68%
    20:00 +12°C° 0 mm 2 mps 753 mmHg 72%
    21:00 +10°C° 0 mm 2 mps 753 mmHg 76%
    22:00 +9°C° 0 mm 2 mps 754 mmHg 79%
    23:00 +9°C° 0 mm 2 mps 754 mmHg 82%
    Show more